Weather in Sosnovskoe

Russia / Nizhny Novgorod Oblast'     55°48′15″N   43°10′05″E
temp.,
°C
wind,
m/s
gust,
m/s
humid.,
%
clouds,
%
prec.,
mm/h
press.,
hPa
HPBL,
m
5 march, fri
fri500:00−8nw2295100 0.0 99923
03:00−9nnw2294100 0.0 100123
06:00−11nw239699 0.1 100255
09:00−9nw359354 0.1 1004206
12:00−5wnw358854 0.0 1006461
15:00−3w358160 0.1 1007827
18:00−7w3589100 0.4 1008114
21:00−9w499150 0.4 1011193
6 march, sat
sat600:00−10wnw389575 0.1 1012261
03:00−15nw239048 0.1 101531
06:00−16wsw22890 0.0 101520
09:00−12sw24870 0.0 1016149
12:00−8wsw35849 0.0 1016447
15:00−6w358349 0.1 1014803
18:00−9nw2596100 0.3 1014155
21:00−12nw229699 0.4 101425
7 march, sun
sun700:00−15wsw229874 0.0 101320
03:00−17sw339663 0.0 101270
06:00−16ssw48972 0.0 1010152
09:00−10ssw6128845 0.0 1006510
12:00−6ssw71491100 0.3 1002827
15:00−5ssw81492100 1.3 9981166
18:00−5ssw71394100 1.2 993989
21:00−5wnw61191100 2.5 993733
8 march, mon
mon800:00−10w4118468 0.0 994276
03:00−12sw5118938 0.0 996302
06:00−10ssw5129465 0.4 995603
09:00−7sw6129382 1.5 994817
12:00−5sw5893100 0.9 993692
15:00−6wnw6877100 1.8 9951058
18:00−9w51194100 0.2 997720
21:00−10wnw61291100 0.5 1001657
9 march, tue
tue900:00−13wnw5119399 0.1 1004449
03:00−15wnw399699 0.1 1007273
06:00−16wnw3797100 0.1 1009243
09:00−16nw3695100 0.1 1011302
12:00−14nw4689100 0.1 1013569
15:00−12nw4687100 0.1 1014742
18:00−15nw4894100 0.1 1015363
21:00−18nw4996100 0.1 1017263